Regional Weather Roundup
Issued by NWS Nashville, TN

Home | Current Version | Previous Version | Text Only | Print | Product List | Glossary On
Versions: 1 2 3 4 5 6 7 8 9 10 11 12 13 14 15 16 17 18 19 20 21 22 23 24 25 26 27 28 29 30 31 32 33 34 35 36 37 38 39 40 41 42 43 44 45 46 47 48 49 50
000
ASUS44 KOHX 011315
RWROHX
MIDDLE TENNESSEE HOURLY WEATHER ROUNDUP
NATIONAL WEATHER SERVICE NASHVILLE TN
800 AM CDT FRI AUG 01 2014

NOTE: "FAIR" INDICATES FEW OR NO CLOUDS BELOW 12,000 FEET WITH
NO SIGNIFICANT WEATHER AND/OR OBSTRUCTIONS TO VISIBILITY.

* THESE REPORTS ARE NOT UNDER NWS QUALITY CONTROL AND MAY NOT
  REPORT WEATHER SUCH AS PRECIPITATION AND FOG.


TNZ005>011-023>034-057-059-062>066-078-080-011400
...NORTHERN MIDDLE TENNESSEE...

CITY           SKY/WX    TMP DP  RH WIND       PRES   REMARKS
CLARKSVILLE    SUNNY     68  62  81 CALM      30.09R
CROSSVILLE     SUNNY     69  63  81 CALM      30.15R
GALLATIN         N/A     67  63  87 CALM      30.10S
DICKSON        SUNNY     68  63  83 CALM      30.09R
LEBANON        SUNNY     67  60  78 CALM      30.08S
LIVINGSTON       N/A     71  61  70 CALM      30.13R
NASHVILLE      MOSUNNY   69  64  84 CALM      30.09S
WEST NASHVILLE   N/A     66  66 100 CALM      30.09R
PORTLAND       SUNNY     64  61  88 CALM      30.09S
SMYRNA         SUNNY     67  67 100 CALM      30.10R
SPARTA         PTSUNNY   64  64 100 CALM      30.11S
$$
TNZ056-058-060-061-075>077-079-093>097-011400
...SOUTHERN MIDDLE TENNESSEE...

CITY           SKY/WX    TMP DP  RH WIND       PRES   REMARKS
COLUMBIA       SUNNY     66  64  94 CALM      30.07S
FAYETTEVILLE   SUNNY     68  63  83 NE10      30.09S
LEWISBURG      SUNNY     65  61  87 S3        30.08S
MCMINNVILLE    SUNNY     66  66 100 CALM      30.11S
MURFREESBORO   SUNNY     67  61  81 E3        30.09R
SHELBYVILLE    SUNNY     70  64  83 E5        30.10S
TULLAHOMA      SUNNY     66  63  88 CALM      30.12R
WINCHESTER     SUNNY     70  64  83 CALM      30.10S
$$


...KEY TO REMARKS...
VSB - VISIBILITY IN MILES
WCI - WIND CHILL INDEX
HX  - HEAT INDEX



USA.gov is the U.S. government's official web portal to all federal, state and local government web resources and services.